TimeCDT,TemperatureF,Dew PointF,Humidity,Sea Level PressureIn,VisibilityMPH,Wind Direction,Wind SpeedMPH,Gust SpeedMPH,PrecipitationIn,Events,Conditions,WindDirDegrees,DateUTC
12:14 AM,39.2,39.2,100,30.01,2.0,NNE,8.1,-,N/A,,Overcast,30,2013-04-09 05:14:00
12:34 AM,39.2,39.2,100,30.01,1.5,NE,6.9,-,N/A,,Overcast,40,2013-04-09 05:34:00
12:54 AM,39.2,39.2,100,30.00,1.2,NNE,9.2,-,N/A,,Overcast,20,2013-04-09 05:54:00
1:14 AM,39.2,39.2,100,29.98,2.0,NNE,12.7,18.4,N/A,,Overcast,20,2013-04-09 06:14:00
1:34 AM,39.2,39.2,100,29.98,3.0,NE,11.5,18.4,N/A,,Overcast,40,2013-04-09 06:34:00
1:54 AM,39.2,39.2,100,29.98,4.0,NNE,9.2,-,N/A,,Overcast,30,2013-04-09 06:54:00
2:14 AM,37.4,37.4,100,29.97,4.0,NNE,11.5,17.3,N/A,,Overcast,30,2013-04-09 07:14:00
2:34 AM,37.4,37.4,100,29.93,2.5,North,13.8,20.7,N/A,,Overcast,10,2013-04-09 07:34:00
2:53 AM,37.4,37.4,100,29.95,2.5,NNE,9.2,-,N/A,,Overcast,20,2013-04-09 07:53:00
3:14 AM,37.4,37.4,100,29.97,2.5,NNE,9.2,19.6,N/A,,Overcast,30,2013-04-09 08:14:00
3:34 AM,37.4,37.4,100,29.99,3.0,NNE,10.4,-,N/A,,Overcast,30,2013-04-09 08:34:00
3:54 AM,37.4,37.4,100,29.99,2.5,NNE,8.1,-,N/A,,Overcast,30,2013-04-09 08:54:00
4:14 AM,37.4,37.4,100,29.97,3.0,NNE,12.7,19.6,N/A,,Overcast,20,2013-04-09 09:14:00
4:34 AM,37.4,37.4,100,29.99,3.0,NNE,10.4,-,N/A,,Overcast,20,2013-04-09 09:34:00
4:54 AM,37.4,37.4,100,29.99,4.0,NNE,11.5,-,N/A,,Overcast,20,2013-04-09 09:54:00
5:14 AM,37.4,37.4,100,29.98,4.0,NNE,10.4,17.3,N/A,,Overcast,20,2013-04-09 10:14:00
5:34 AM,37.4,37.4,100,29.97,3.0,NNE,15.0,19.6,N/A,,Overcast,20,2013-04-09 10:34:00
5:54 AM,35.6,35.6,100,29.97,5.0,NNE,15.0,20.7,N/A,,Overcast,20,2013-04-09 10:54:00
6:14 AM,35.6,35.6,100,29.97,4.0,North,16.1,19.6,N/A,Rain,Light Rain,10,2013-04-09 11:14:00
6:34 AM,35.6,35.6,100,29.98,5.0,NNE,16.1,23.0,0.04,Rain,Rain,20,2013-04-09 11:34:00
6:54 AM,35.6,35.6,100,29.98,7.0,NE,11.5,23.0,0.07,Rain,Light Rain,40,2013-04-09 11:54:00
7:14 AM,35.6,35.6,100,29.97,5.0,NNE,16.1,24.2,0.02,Rain,Rain,20,2013-04-09 12:14:00
7:34 AM,35.6,35.6,100,29.98,7.0,NNE,15.0,24.2,0.03,Rain,Light Rain,20,2013-04-09 12:34:00
7:54 AM,35.6,35.6,100,29.97,7.0,NNE,17.3,25.3,0.04,Rain,Light Rain,20,2013-04-09 12:54:00
8:14 AM,35.6,35.6,100,29.96,7.0,NNE,16.1,27.6,N/A,Rain,Light Rain,20,2013-04-09 13:14:00
8:34 AM,35.6,35.6,100,29.96,4.0,North,21.9,26.5,0.02,Rain,Light Rain,10,2013-04-09 13:34:00
8:54 AM,35.6,35.6,100,29.96,4.0,NNE,18.4,27.6,0.04,Rain,Heavy Rain,20,2013-04-09 13:54:00
9:14 AM,35.6,35.6,100,29.97,4.0,North,17.3,25.3,0.04,Rain,Rain,10,2013-04-09 14:14:00
9:34 AM,35.6,35.6,100,29.96,2.5,North,19.6,24.2,0.09,Rain,Rain,10,2013-04-09 14:34:00
9:54 AM,35.6,35.6,100,29.98,2.5,North,18.4,25.3,0.14,Rain,Rain,10,2013-04-09 14:54:00
10:14 AM,35.6,35.6,100,29.99,2.0,NNE,16.1,23.0,0.08,Rain-Thunderstorm,Heavy Thunderstorms and Rain,20,2013-04-09 15:14:00
10:34 AM,35.6,35.6,100,29.95,1.8,NNE,20.7,31.1,0.19,Rain-Thunderstorm,Rain,20,2013-04-09 15:34:00
10:54 AM,35.6,35.6,100,29.97,4.0,North,19.6,26.5,0.24,Rain,Rain,10,2013-04-09 15:54:00
11:14 AM,35.6,35.6,100,30.00,4.0,North,15.0,25.3,0.02,Rain,Rain,360,2013-04-09 16:14:00
11:34 AM,35.6,35.6,100,30.01,2.5,North,19.6,27.6,0.06,Rain,Heavy Rain,10,2013-04-09 16:34:00
11:54 AM,35.6,35.6,100,30.02,4.0,North,23.0,28.8,0.09,Rain,Rain,10,2013-04-09 16:54:00
12:14 PM,35.6,35.6,100,30.01,7.0,NNE,18.4,26.5,0.02,Rain,Rain,20,2013-04-09 17:14:00
12:34 PM,35.6,35.6,100,30.00,10.0,NNE,18.4,25.3,0.03,Rain,Light Rain,20,2013-04-09 17:34:00
12:53 PM,35.6,35.6,100,29.99,7.0,North,24.2,31.1,0.03,Rain,Light Rain,10,2013-04-09 17:53:00
1:14 PM,35.6,35.6,100,29.99,10.0,North,17.3,28.8,N/A,,Overcast,10,2013-04-09 18:14:00
1:34 PM,37.4,37.4,100,29.98,10.0,North,23.0,32.2,N/A,,Overcast,10,2013-04-09 18:34:00
1:53 PM,37.4,37.4,100,29.99,10.0,North,16.1,31.1,N/A,,Overcast,10,2013-04-09 18:53:00
2:14 PM,37.4,37.4,100,29.99,10.0,NNE,21.9,29.9,N/A,,Overcast,30,2013-04-09 19:14:00
2:34 PM,37.4,37.4,100,29.99,10.0,NNE,20.7,28.8,N/A,,Overcast,20,2013-04-09 19:34:00
2:54 PM,37.4,37.4,100,29.99,7.0,NNE,15.0,21.9,N/A,,Overcast,30,2013-04-09 19:54:00
3:14 PM,37.4,37.4,100,30.00,10.0,NNE,15.0,25.3,N/A,,Overcast,30,2013-04-09 20:14:00
3:34 PM,37.4,37.4,100,30.00,10.0,NNE,13.8,24.2,N/A,,Overcast,30,2013-04-09 20:34:00
3:54 PM,37.4,37.4,100,30.00,10.0,NNE,9.2,17.3,N/A,,Overcast,20,2013-04-09 20:54:00
4:14 PM,37.4,37.4,100,30.00,10.0,NNE,12.7,23.0,N/A,,Overcast,20,2013-04-09 21:14:00
4:34 PM,39.2,37.4,93,30.00,10.0,NNE,19.6,28.8,N/A,,Overcast,30,2013-04-09 21:34:00
4:54 PM,39.2,37.4,93,30.04,10.0,NNE,11.5,20.7,N/A,,Overcast,30,2013-04-09 21:54:00
5:14 PM,39.2,35.6,87,30.04,10.0,North,13.8,19.6,N/A,,Overcast,10,2013-04-09 22:14:00
5:34 PM,39.2,35.6,87,30.04,10.0,North,16.1,23.0,N/A,,Overcast,10,2013-04-09 22:34:00
5:54 PM,39.2,33.8,81,30.03,10.0,NNE,18.4,26.5,N/A,,Overcast,20,2013-04-09 22:54:00
6:14 PM,39.2,33.8,81,30.05,10.0,NNE,15.0,23.0,N/A,,Overcast,30,2013-04-09 23:14:00
6:34 PM,39.2,32.0,75,30.05,10.0,NNE,15.0,23.0,N/A,,Overcast,20,2013-04-09 23:34:00
6:54 PM,37.4,33.8,87,30.02,10.0,NNE,16.1,23.0,N/A,,Overcast,20,2013-04-09 23:54:00
7:14 PM,37.4,32.0,81,29.99,10.0,NNE,19.6,26.5,N/A,,Mostly Cloudy,20,2013-04-10 00:14:00
7:34 PM,37.4,33.8,87,29.99,10.0,NNE,16.1,26.5,N/A,,Mostly Cloudy,20,2013-04-10 00:34:00
7:54 PM,37.4,33.8,87,29.99,10.0,NNE,17.3,27.6,N/A,Rain,Light Rain,30,2013-04-10 00:54:00
8:13 PM,37.4,33.8,87,29.96,10.0,NNE,21.9,32.2,0.01,Rain,Light Rain,20,2013-04-10 01:13:00
8:34 PM,37.4,33.8,87,30.01,10.0,NNE,12.7,23.0,0.01,Rain,Light Rain,20,2013-04-10 01:34:00
8:54 PM,35.6,32.0,87,30.01,10.0,NNE,16.1,26.5,0.03,Rain-Thunderstorm,Light Thunderstorms and Rain,20,2013-04-10 01:54:00
9:14 PM,35.6,32.0,87,30.05,10.0,NNE,11.5,21.9,0.01,Rain-Thunderstorm,Light Thunderstorms and Rain,30,2013-04-10 02:14:00
9:54 PM,35.6,32.0,87,30.06,5.0,NNE,9.2,-,0.12,Rain-Thunderstorm,Rain,30,2013-04-10 02:54:00
10:14 PM,33.8,32.0,93,30.06,7.0,NNE,10.4,-,0.03,Rain,Rain,20,2013-04-10 03:14:00
10:34 PM,33.8,33.8,100,30.10,5.0,North,6.9,-,0.06,Rain-Thunderstorm,Thunderstorms and Rain,350,2013-04-10 03:34:00
10:53 PM,33.8,32.0,93,30.09,3.0,North,9.2,-,0.12,Rain-Thunderstorm,Thunderstorms and Rain,360,2013-04-10 03:53:00
11:14 PM,33.8,32.0,93,30.07,3.0,North,16.1,19.6,0.06,Rain,Light Rain,10,2013-04-10 04:14:00
11:34 PM,32.0,32.0,100,30.08,4.0,North,13.8,20.7,0.10,Rain-Thunderstorm,Rain,10,2013-04-10 04:34:00
11:54 PM,32.0,32.0,100,30.08,5.0,North,15.0,19.6,0.12,Rain,Rain,10,2013-04-10 04:54:00